Theta_e
294 293 292 291 290 290 290 290 289 289 289 289 289 289 289 289 288 288 288 288 288 287 287 287 286 286 286 286 285 285 285 285 284 285 285 285 285 286 285 285 285 285 285
294 293 292 290 290 290 290 290 289 289 289 288 288 288 288 288 288 288 287 287 287 287 286 286 286 286 286 285 285 285 284 284 284 283 284 284 284 284 284 284 285 285 285
294 293 292 290 290 289 289 289 289 289 288 288 288 288 288 287 287 287 287 287 286 286 286 286 285 285 285 284 284 284 284 284 283 283 283 283 283 283 283 283 283 283 283
294 293 292 291 290 289 289 289 289 288 288 288 287 287 287 286 286 286 286 286 286 285 285 285 285 285 284 284 284 284 283 283 283 282 282 282 282 282 282 282 282 281 280
294 294 293 292 290 289 288 288 288 288 288 287 287 286 286 286 286 286 285 285 285 285 285 285 285 285 284 284 283 283 282 281 280 280 281 280 280 280 280 279 279 279 278
294 294 293 292 291 289 288 287 287 287 287 287 286 286 286 285 285 285 285 285 285 285 285 285 284 284 284 283 282 282 281 280 279 279 279 279 279 278 278 278 278 278 278
293 293 292 292 291 289 288 287 287 286 286 286 286 285 285 285 285 285 285 285 285 285 284 284 283 283 282 282 281 280 279 278 277 277 277 277 277 277 277 277 276 275 275
292 292 291 291 290 289 288 287 286 286 286 285 285 285 284 284 284 285 284 284 284 283 283 282 281 281 280 279 279 277 276 276 276 276 276 276 276 275 274 273 273 272 272
291 291 290 290 290 289 288 287 286 286 285 285 284 284 284 284 284 284 284 283 282 281 280 280 279 278 277 277 275 275 275 275 274 274 273 273 272 272 271 269 269 268 268
290 290 290 289 288 288 287 286 286 285 285 284 284 283 283 282 282 282 281 280 279 278 278 277 276 276 275 274 274 274 274 273 273 272 271 271 270 269 269 268 267 267 267
289 289 288 287 286 286 286 285 285 284 284 283 283 282 281 280 279 278 278 280 277 275 275 274 274 274 273 273 273 273 272 271 271 270 269 268 268 268 267 266 265 264 264
287 286 286 285 285 285 284 284 283 283 282 281 280 279 278 277 279 278 276 275 274 274 273 273 272 272 272 271 271 270 270 269 268 267 267 267 266 266 266 265 265 264 263
285 284 284 284 283 283 283 282 281 280 279 278 277 277 278 277 276 275 274 273 273 272 271 271 271 270 269 269 269 268 267 266 265 265 265 265 265 264 263 264 264 263 263
283 282 282 282 281 280 279 279 278 277 277 278 278 277 276 275 274 272 272 271 270 270 270 270 269 269 269 268 267 266 265 264 264 263 263 263 263 263 263 262 262 263 262
281 280 279 279 278 277 276 276 277 277 277 276 276 275 273 272 271 269 269 269 268 269 269 269 268 268 267 265 265 264 263 263 262 262 262 262 262 261 261 261 261 261 260
279 277 277 276 276 277 277 277 276 276 275 273 272 271 270 269 268 267 267 267 267 268 267 267 266 265 264 263 263 263 263 262 261 261 261 261 260 260 260 260 260 259 259
277 276 276 276 276 276 276 275 273 271 270 270 269 268 268 267 267 268 267 266 265 264 265 264 263 263 262 262 262 261 261 260 260 260 259 259 259 259 259 259 259 258 258
276 276 276 275 275 274 273 271 270 270 269 269 268 268 268 267 267 266 264 263 264 263 262 262 261 260 260 260 260 259 259 259 259 259 259 259 259 258 258 258 258 257 258
275 275 274 273 272 271 270 270 269 269 268 268 268 267 266 265 265 263 263 262 261 260 260 259 259 259 259 258 258 258 258 258 259 259 259 258 258 258 258 258 257 257 257
273 272 271 270 269 269 269 268 268 267 267 266 266 265 264 263 264 262 261 260 259 259 258 258 257 257 257 258 258 258 258 258 259 259 259 259 259 258 257 257 257 257 257
270 269 269 268 268 267 267 267 266 266 265 264 263 262 261 260 260 260 259 259 258 258 257 257 257 257 257 257 257 258 258 258 258 259 259 259 258 258 258 257 258 258 259
268 268 267 267 266 266 265 265 264 263 263 262 262 262 261 260 259 259 258 257 257 256 256 256 256 256 257 257 257 257 258 258 259 259 259 259 259 259 259 259 259 259 260
266 266 266 265 265 264 263 263 263 262 262 261 261 260 260 259 259 258 257 257 256 256 256 256 256 257 257 257 257 257 258 259 259 259 259 260 260 260 260 260 261 261 261
265 265 264 263 263 263 262 262 262 261 261 261 260 260 259 259 258 257 257 257 257 256 256 256 256 257 257 257 258 259 259 259 260 260 261 261 262 262 262 262 262 262 262
263 263 263 262 262 262 262 261 261 261 260 260 260 259 259 259 258 258 257 257 257 257 257 257 257 258 258 259 259 260 260 261 261 261 262 263 264 264 263 263 263 262 263
262 262 262 262 261 261 261 261 260 260 260 259 259 259 259 259 258 258 258 258 258 258 258 259 259 259 260 260 261 261 261 262 263 263 263 264 264 265 264 265 265 264 265
Wind_Speed
38 37 36 35 33 31 28 26 26 24 23 21 20 19 17 16 15 14 13 12 11 10 10 10 11 12 13 15 16 16 18 19 23 28 28 30 32 34 36 37 39 41 43
37 38 37 35 34 33 32 28 28 26 24 23 21 20 19 17 16 15 14 13 12 12 12 12 13 14 16 17 18 18 20 21 24 31 32 35 36 36 38 40 41 41 44
38 37 38 37 35 35 33 30 29 27 26 24 23 21 20 18 17 16 15 14 14 13 14 14 16 17 18 19 19 21 23 24 26 29 35 34 35 35 37 38 40 41 42
39 37 37 37 36 34 32 31 29 28 26 24 23 21 20 19 18 18 17 16 16 16 17 18 19 20 21 22 23 24 25 27 29 31 34 34 32 32 33 35 38 40 42
40 37 36 35 34 32 31 31 28 27 26 24 23 22 21 20 19 19 18 18 18 18 19 20 20 21 21 23 25 25 26 27 25 28 32 33 31 33 36 35 42 47 45
41 38 36 34 32 31 31 29 28 27 26 25 24 23 21 21 20 20 19 19 20 19 19 19 20 22 23 24 25 25 26 26 27 28 31 33 34 37 38 31 30 33 41
40 38 36 33 32 31 29 28 27 26 26 25 24 22 22 21 21 20 19 18 17 17 18 20 21 22 23 24 24 26 27 27 25 27 31 30 31 27 29 35 41 47 54
39 37 35 33 31 30 29 28 28 27 25 23 22 21 20 19 19 17 15 15 16 17 18 19 20 21 22 23 26 28 28 28 27 24 24 31 34 38 40 44 50 55 59
36 36 34 34 33 32 31 29 27 25 23 22 20 19 17 15 15 14 13 13 13 15 16 18 20 22 22 24 26 28 29 31 34 34 31 32 38 40 42 43 49 45 47
35 34 33 31 30 30 29 28 26 23 22 20 18 16 15 13 13 12 11 10 11 14 18 20 22 24 24 23 21 23 28 34 39 39 43 43 43 46 44 40 36 35 38
31 30 29 28 29 28 27 25 23 22 20 18 16 14 12 11 9 9 10 12 14 17 20 22 24 25 24 19 21 27 31 32 36 42 44 47 46 45 43 39 35 35 40
27 27 28 27 27 26 25 24 22 20 18 17 14 12 9 6 7 9 12 15 17 21 23 25 27 24 22 24 26 28 28 29 39 43 43 44 43 42 40 40 40 39 36
28 29 29 29 28 26 25 24 22 19 16 14 11 7 5 5 8 13 16 18 18 18 23 23 23 24 26 32 36 26 30 37 37 37 38 38 38 38 39 42 42 40 41
30 30 29 29 28 26 24 21 19 16 13 9 5 2 5 9 12 14 16 20 23 25 28 30 34 33 37 34 38 38 36 34 33 33 34 35 35 38 40 38 39 41 42
31 31 30 28 26 25 21 18 14 11 7 3 2 6 10 12 14 14 17 21 22 24 28 35 38 38 37 38 36 35 33 31 32 31 32 34 36 35 37 36 37 39 37
32 31 29 27 25 21 17 15 11 6 1 4 7 10 13 15 16 18 20 22 23 25 28 34 36 35 35 35 35 35 33 31 30 30 32 31 32 34 36 37 36 34 35
30 29 26 23 21 17 13 8 5 1 3 7 10 13 16 20 24 28 29 26 21 22 31 32 33 34 34 33 32 32 32 30 30 30 29 30 32 34 34 35 35 34 35
26 25 22 19 15 11 7 4 3 5 8 10 13 18 22 25 27 28 24 24 29 27 29 29 30 30 30 30 30 30 30 30 29 29 29 30 30 32 34 35 34 34 35
23 20 16 13 9 6 4 3 6 10 14 18 21 22 25 26 26 22 23 28 29 28 27 27 26 27 27 27 28 29 28 29 29 29 30 30 32 32 34 34 34 35 35
18 14 10 7 4 1 4 7 11 15 18 21 23 24 25 26 27 27 28 28 28 28 27 27 27 27 27 27 27 27 28 28 28 29 30 31 32 32 33 34 35 36 37
12 9 5 1 2 6 9 12 14 17 18 20 21 22 21 23 27 27 27 27 26 27 27 28 28 27 27 25 26 27 27 28 28 29 30 31 31 32 32 34 35 36 37
6 3 0 4 7 9 11 13 14 16 18 20 21 22 23 24 25 26 26 26 26 26 26 26 27 26 25 25 25 26 26 27 27 28 29 30 31 32 34 35 36 37 38
2 2 5 7 9 10 11 13 15 16 18 19 21 23 24 24 24 25 25 25 25 25 24 25 25 25 23 23 23 24 26 26 26 27 28 30 31 33 34 36 37 38 39
3 5 6 7 9 11 12 13 15 16 17 19 20 21 22 23 24 24 24 24 24 23 23 23 22 22 22 21 22 22 23 23 23 23 24 29 33 34 35 37 39 40 41
4 5 7 9 10 12 12 13 14 15 16 18 19 20 21 21 22 22 22 22 22 22 21 20 20 20 20 20 20 20 20 19 17 20 24 29 32 35 38 41 42 42 42
5 7 9 10 11 12 13 13 14 15 16 17 18 19 20 20 20 21 21 21 21 20 20 19 19 19 19 19 18 16 14 14 18 20 26 30 32 37 40 42 43 43 44
Wind_Direction
210 210 212 213 212 213 214 214 216 217 215 214 214 214 215 217 219 223 228 233 241 250 259 270 279 287 292 296 297 298 295 291 286 293 294 297 296 299 300 300 300 300 300
210 210 211 212 213 213 215 216 217 218 218 218 218 218 220 222 225 229 234 241 248 257 266 275 281 286 291 294 294 293 291 290 289 290 296 298 298 301 299 298 298 297 298
210 211 211 213 213 215 216 217 218 219 219 220 221 223 225 227 230 234 240 247 255 262 268 275 281 285 288 289 288 290 292 291 291 291 294 296 297 302 307 306 305 304 302
211 211 212 213 215 216 216 218 219 219 221 222 223 225 227 230 234 240 246 252 257 263 269 274 280 284 286 289 290 291 291 291 294 296 300 304 305 305 302 302 298 295 295
211 211 213 214 215 215 216 218 219 219 220 221 222 225 229 234 239 245 250 256 261 266 272 276 281 285 287 288 291 294 295 297 296 295 296 300 300 302 304 306 299 302 304
211 211 212 212 212 213 215 216 216 218 219 220 222 226 231 237 242 247 253 258 263 266 272 280 283 285 287 291 293 294 296 296 298 298 300 300 299 298 304 300 295 296 302
209 209 210 210 209 211 212 212 212 214 216 218 222 227 232 237 242 246 252 257 264 271 276 280 283 286 290 292 293 294 294 295 293 292 292 299 301 294 291 293 293 294 293
206 206 207 207 207 207 206 206 207 212 216 217 219 221 226 230 240 246 252 260 267 272 277 281 284 288 293 297 298 298 298 299 299 296 285 285 285 285 293 296 296 296 296
200 202 203 205 204 204 204 205 207 209 209 209 211 213 216 222 240 249 255 262 270 277 282 285 289 293 297 298 299 305 306 299 296 295 296 287 291 298 299 302 300 302 300
195 197 201 202 202 200 199 199 200 200 201 199 200 202 208 217 238 252 260 272 284 290 293 297 298 299 301 308 317 305 297 295 303 303 295 300 302 304 305 305 304 295 295
191 192 191 191 192 193 191 190 190 188 188 187 189 193 203 215 237 262 282 296 298 297 299 301 299 302 308 309 300 293 295 304 297 296 302 305 308 309 311 309 305 300 298
177 176 175 176 177 175 179 173 173 175 176 176 180 183 192 216 265 294 299 294 295 297 299 298 302 312 302 300 301 301 302 298 296 302 305 307 310 311 311 309 308 308 304
164 161 162 162 161 161 164 163 163 164 166 167 172 187 223 282 296 290 291 293 298 305 303 308 302 297 303 303 309 306 301 302 303 304 306 307 310 311 310 310 311 311 311
154 151 151 153 152 152 154 154 156 156 160 166 182 250 283 276 280 290 302 306 308 311 314 312 305 302 304 303 305 306 305 304 304 305 307 309 309 309 310 313 314 316 314
150 147 146 146 145 144 143 142 145 146 156 166 237 273 279 291 302 311 313 312 316 314 311 298 299 302 303 305 305 304 305 305 305 307 306 306 307 310 313 316 316 317 313
146 144 143 143 142 141 143 142 143 141 170 276 284 294 300 302 303 310 313 314 314 312 297 297 300 302 304 305 305 304 305 306 305 304 306 309 312 314 315 316 316 315 307
144 142 142 142 140 137 132 124 115 148 278 295 299 300 304 304 306 306 306 312 308 304 299 302 302 302 302 302 302 303 304 306 304 307 310 312 315 314 315 317 316 313 307
141 139 138 133 126 120 119 146 213 262 280 289 300 304 304 305 306 307 312 306 307 305 303 303 303 303 304 305 305 304 306 307 308 310 312 314 316 319 318 316 313 309 309
136 131 126 121 124 145 186 263 299 308 312 312 310 309 311 313 316 314 312 314 313 312 312 310 307 307 308 307 306 307 307 309 312 315 317 319 318 318 316 317 314 312 310
126 122 126 141 153 238 309 317 318 315 315 315 318 320 320 317 316 318 318 317 316 315 313 311 311 311 311 309 309 309 309 311 314 315 316 317 318 318 315 316 314 309 308
130 138 140 127 332 323 320 317 317 319 321 321 322 324 325 317 321 321 319 318 316 314 313 312 312 312 312 311 309 309 310 311 313 315 315 316 317 316 320 319 317 317 318
139 135 10 323 321 318 321 325 326 325 323 323 324 325 325 325 324 324 321 319 318 315 313 311 311 310 311 309 309 309 309 311 315 316 315 317 319 320 320 322 322 321 320
130 331 323 324 326 327 328 328 326 326 326 327 328 329 330 328 326 324 323 323 320 318 317 314 312 311 310 309 308 309 309 311 313 314 316 317 318 321 322 320 322 323 324
325 326 328 329 328 324 324 327 328 327 328 329 329 328 328 330 330 328 326 325 323 321 320 317 315 314 314 312 310 310 310 311 312 315 316 316 318 321 324 326 326 325 323
330 329 330 326 324 325 327 327 326 325 325 325 326 328 330 331 330 330 330 328 327 325 325 324 323 320 317 313 313 313 310 312 313 314 315 319 325 329 328 327 328 327 325
325 325 324 324 324 325 326 325 323 321 322 325 327 327 328 330 331 332 332 331 330 330 330 328 325 320 318 317 318 316 316 318 316 320 325 326 327 330 330 331 331 330 330